• Join FlightAware (Why Join?)
  • Login
  • US Flag 
06:16PM EST


 

Airport Tracker/Info


-or-


 

Live Flight TrackerFlight Track Log ✈ N510SR ✈ 16-Apr-2014 ✈ KTEB - KYIP

Flight Track Log - Related Links

Times and Time Zones

All times are in EDT time to prevent confusion due to time zone crossing. See the N510SR flight status page for this flight to view local times or setup timezone preferences in your user account.

Time Position Orientation Groundspeed Altitude Reporting Facility
EDT Latitude Longitude Course Direction KTS MPH feet Rate Location/Type
09:00AM 40.9000 -74.0500 288° West 220 253 3,500  Level New York TRACON
09:01AM 40.9167 -74.1167 288° West 227 261 6,700 3,300 Climbing New York TRACON
09:02AM 40.9000 -74.2000 255° West 241 277 10,100 2,238 Climbing New York TRACON
09:03AM 40.8833 -74.3000 258° West 288 331 11,400 1,950 Climbing New York TRACON
09:04AM 40.8833 -74.4167 270° West 315 362 14,000 2,628 Climbing New York TRACON
09:05AM 40.8953 -74.5375 277° West 327 376 16,700 1,587 Climbing New York Center
09:06AM 40.9003 -74.6447 274° West 334 384 17,200 198 Climbing New York Center
09:07AM 40.9042 -74.7767 272° West 327 376 17,100 -50 Descending New York Center
09:08AM 40.9103 -74.9006 274° West 332 382 17,100 202 Level New York Center
09:09AM 40.9119 -75.0242 271° West 332 382 17,500 1,150 Climbing New York Center
09:10AM 40.8936 -75.1328 257° West 332 382 19,400 2,200 Climbing New York Center
09:11AM 40.8656 -75.2711 255° West 339 390 21,900 2,300 Climbing New York Center
09:12AM 40.8378 -75.3953 254° West 346 398 24,000 2,050 Climbing New York Center
09:13AM 40.8139 -75.5253 256° West 364 419 26,000 1,850 Climbing New York Center
09:14AM 40.7997 -75.6642 262° West 376 433 27,700 1,700 Climbing New York Center
09:15AM 40.8086 -75.8047 275° West 381 438 29,400 1,800 Climbing New York Center
09:16AM 40.8150 -75.9450 273° West 388 447 31,300 1,900 Climbing New York Center
09:17AM 40.8219 -76.0689 274° West 388 447 33,200 1,600 Climbing New York Center
09:18AM 40.8283 -76.2039 274° West 383 441 34,500 1,300 Climbing New York Center
09:19AM 40.8386 -76.3444 276° West 388 447 35,800 1,100 Climbing New York Center
09:20AM 40.8444 -76.4794 273° West 388 447 36,700 850 Climbing New York Center
09:21AM 40.8522 -76.6228 274° West 388 447 37,500 550 Climbing New York Center
09:22AM 40.8594 -76.7661 274° West 388 447 37,800 600 Climbing New York Center
09:23AM 40.8669 -76.9067 274° West 388 447 38,700 600 Climbing New York Center
09:24AM 40.8736 -77.0556 273° West 393 452 39,000 600 Climbing New York Center
09:25AM 40.8806 -77.2017 274° West 398 458 39,900 550 Climbing New York Center
09:26AM 40.8892 -77.3481 274° West 403 464 40,100 107 Climbing New York Center
09:27AM 40.8947 -77.4658 274° West 404 465 40,100  Level Cleveland Center
09:28AM 40.9011 -77.6469 273° West 413 475 40,100  Level Cleveland Center
09:29AM 40.9081 -77.8000 273° West 415 478 40,100  Level Cleveland Center
09:30AM 40.9142 -77.9519 273° West 415 478 40,100  Level Cleveland Center
09:31AM 40.9292 -78.1056 277° West 419 482 40,100  Level Cleveland Center
09:32AM 40.9500 -78.2661 280° West 420 483 40,100  Level Cleveland Center
09:33AM 40.9681 -78.4156 279° West 419 482 40,100  Level Cleveland Center
09:34AM 40.9861 -78.5672 279° West 418 481 40,100  Level Cleveland Center
09:35AM 41.0047 -78.7183 279° West 420 483 40,100  Level Cleveland Center
09:37AM 41.0436 -79.0483 279° West 417 480 40,100  Level Cleveland Center
09:38AM 41.0600 -79.1983 278° West 417 480 40,100  Level Cleveland Center
09:39AM 41.0767 -79.3483 278° West 416 479 40,100  Level Cleveland Center
09:40AM 41.0939 -79.4989 279° West 416 479 40,100 -339 Level Cleveland Center
09:41AM 41.1111 -79.6486 279° West 416 479 39,400 -1,210 Descending Cleveland Center
09:43AM 41.1303 -79.8303 278° West 407 468 37,600 -1,597 Descending Cleveland Center
09:44AM 41.1458 -79.9783 278° West 405 466 36,100 -1,210 Descending Cleveland Center
09:45AM 41.1619 -80.1167 279° West 403 464 35,100 -484 Descending Cleveland Center
09:46AM 41.1769 -80.2600 278° West 398 458 35,100 -537 Level Cleveland Center
09:47AM 41.1939 -80.4283 278° West 400 460 34,000 -1,268 Descending Cleveland Center
09:48AM 41.2106 -80.5839 278° West 418 481 32,500 -1,452 Descending Cleveland Center
09:49AM 41.2275 -80.7406 278° West 423 487 31,000 -1,161 Descending Cleveland Center
09:50AM 41.2417 -80.8939 277° West 421 484 30,100 -435 Descending Cleveland Center
09:51AM 41.2567 -81.0447 278° West 414 476 30,100 -581 Level Cleveland Center
09:52AM 41.2708 -81.1972 277° West 412 474 28,900 -968 Descending Cleveland Center
09:53AM 41.2844 -81.3456 277° West 401 461 28,100 -435 Descending Cleveland Center
09:54AM 41.3000 -81.5136 277° West 399 459 28,000 -97 Descending Cleveland Center
09:55AM 41.3406 -81.6514 291° West 403 464 27,900 -780 Descending Cleveland Center
09:56AM 41.4058 -81.7700 306° West 407 468 26,400 -1,463 Descending Cleveland Center
09:57AM 41.4667 -81.8886 304° West 392 451 24,900 -1,742 Descending Cleveland Center
09:58AM 41.5264 -82.0033 305° West 379 436 22,800 -2,371 Descending Cleveland Center
09:59AM 41.5925 -82.1336 304° West 361 415 20,000 -2,419 Descending Cleveland Center
10:00AM 41.6475 -82.2397 305° West 347 399 17,800 -1,887 Descending Cleveland Center
10:01AM 41.6950 -82.3344 304° West 346 398 16,100 -2,192 Descending Cleveland Center
10:02AM 41.7381 -82.4206 304° West 334 384 14,000 -2,323 Descending Cleveland Center
10:02AM 41.7469 -82.4361 307° West 337 388 13,700 -1,800 Descending Cleveland Center
10:03AM 41.7986 -82.5403 304° West 287 330 11,600 -1,800 Descending Cleveland Center
10:04AM 41.8425 -82.6269 304° West 262 302 10,100 -1,091 Descending Cleveland Center
10:05AM 41.8972 -82.6844 322° Northwest 245 282 9,400 -1,328 Descending Cleveland Center
10:06AM 41.9561 -82.7369 326° Northwest 250 288 7,400 -1,967 Descending Cleveland Center
10:07AM 41.9989 -82.8100 308° West 254 292 5,400 -1,241 Descending Cleveland Center
10:08AM 42.0333 -82.8847 302° West 255 293 5,000 -348 Descending Cleveland Center
10:08AM 42.0358 -82.8883 313° West 252 290 5,000 98 Level Cleveland Center
10:09AM 42.0714 -82.9628 303° West 248 285 5,100  Climbing Cleveland Center
10:09AM 42.0803 -82.9806 304° West 251 289 5,000  Descending Cleveland Center
10:10AM 42.1167 -83.0561 303° West 245 282 5,100  Climbing Cleveland Center
10:11AM 42.1533 -83.1331 303° West 244 281 5,000 -55 Descending Cleveland Center
10:12AM 42.1836 -83.1978 302° West 243 280 5,000  Level Cleveland Center
10:12AM 42.1906 -83.2114 305° West 244 281 5,000  Level Cleveland Center
10:13AM 42.2194 -83.2758 301° West 244 281 5,000  Level Cleveland Center
10:13AM 42.2261 -83.2858 312° West 244 281 5,000 -537 Level Cleveland Center
10:14AM 42.2536 -83.3483 301° West 193 222 4,400 -1,082 Descending Cleveland Center
10:14AM 42.2611 -83.3606 310° West 201 231 3,900 -1,481 Descending Cleveland Center
10:16AM 42.2883 -83.4222 301° West 196 226 2,500 -1,105 Descending Cleveland Center
10:16AM 42.2775 -83.4731 254° West 147 169 1,800 -484 Descending Cleveland Center
10:17AM 42.2844 -83.4714 10° North 177 204 2,000 -822 Climbing Cleveland Center
10:18AM 42.2433 -83.5217 222° Southwest 163 188 800 -1,161 Descending Cleveland Center
10:20AM 42.2333 -83.5167 304° West  Level FlightAware Approximate